Regional Weather Roundup
Issued by NWS

Home | Current Version | Previous Version | Graphics & Text | Print | Product List | Glossary On
Versions: 1 2 3 4 5 6 7 8 9 10 11 12 13 14 15 16 17 18 19 20 21 22 23 24 25 26 27 28 29 30 31 32 33 34 35 36 37 38 39 40 41 42 43 44 45 46 47 48 49 50
000
ASUS43 KLOT 250708
RWRIL

ILLINOIS REGIONAL WEATHER ROUNDUP
NATIONAL WEATHER SERVICE CHICAGO/ROMEOVILLE IL
200 AM CDT MON MAY 25 2015

NOTE: "FAIR" INDICATES FEW OR NO CLOUDS BELOW 12,000 FEET WITH NO
SIGNIFICANT WEATHER AND/OR OBSTRUCTIONS TO VISIBILITY.

* THESE STATIONS ARE NOT UNDER NWS QUALITY CONTROL. THEY ALSO MAY NOT
  REPORT WEATHER SUCH AS PRECIPITATION OR FOG.

ILZ001-002-007-009-015-016-024-250800-
NORTHWEST ILLINOIS

CITY           SKY/WX    TMP DP  RH WIND       PRES   REMARKS
MOLINE         CLOUDY    67  64  90 SE5       29.77F
STERLING*      CLOUDY    66  64  94 S3        29.82F
SAVANNA*       RAIN      67  65  93 S5        29.79F
$$

ILZ003-004-008-010-011-017-018-250800-
NORTH CENTRAL ILLINOIS

CITY           SKY/WX    TMP DP  RH WIND       PRES   REMARKS
ROCKFORD       LGT RAIN  67  65  93 MISG      29.85F
FREEPORT*      CLOUDY    66  64  94 S9        29.83F
ROCHELLE*      DRIZZLE   66  65  98 SE5       29.85F
DE KALB*       CLOUDY    67  64  89 W5        29.86F
PERU*          DRIZZLE   69  66  92 S15       29.85F
$$

ILZ005-006-012>014-019>023-250800-
NORTHEAST ILLINOIS

CITY           SKY/WX    TMP DP  RH WIND       PRES   REMARKS
CHICAGO-OHARE  CLOUDY    72  62  71 S16G24    29.86F
CHICAGO-MIDWAY CLOUDY    75  63  66 S14G22    29.87F
AURORA         CLOUDY    72  62  71 S13       29.85F
LANSING*       MOCLDY    73  59  62 S13       29.90F
JOLIET*        CLOUDY    75  65  69 S16G22    29.86F
WAUKEGAN       CLOUDY    69  62  78 S14       29.85F
DUPAGE AIRPORT CLOUDY    72  63  73 S16G28    29.85F
KANKAKEE*      CLOUDY    74  64  69 S21G31    29.89F
WHEELING       CLOUDY    71  62  73 S14       29.87F
MORRIS*        LGT RAIN  72  65  78 S20G30    29.84F
ROMEOVILLE*    CLOUDY    72  62  69 S18G24    29.86F
NORTHERLY ISL    N/A     74  60  61 S14         N/A
$$

LMZ740>746-250800-
SOUTHERN LAKE MICHIGAN

STATION/POSITION SKY/WX   TEMP    WIND        PRES    VSBY  WAVE
                          AIR SEA DIR/SP/G                  HT/PER
                          (F)     (DEG/KT/KT) (MB)    (MI)  (FT/S)
SOUTHERN BUOY              48 38  170/ 14/ 16 1012.3F         1
HARRISON CRIB              71     180/ 24/ 30   N/A
BURNHAM HARBOR             74     190/ 11/ 18   N/A
CALUMET HARBOR             75     160/ 13/ 19   N/A
BURNS HARBOR               75     190/ 15/ 24 1013.5F
MICHIGAN CITY              74     150/ 16/ 24   N/A
MICHIGAN CITY 6N           68 53  190/ 16/ 21   N/A           2/ 2
ST. JOSEPH                 67 54  200/ 14/ 19   N/A           2/ 3
$$

ILZ025>027-034>036-040-047-049-050-058-095>099-250800-
WEST-CENTRAL ILLINOIS

CITY           SKY/WX    TMP DP  RH WIND       PRES   REMARKS
QUINCY         LGT RAIN  67  65  93 S15G21    29.79S FOG
GALESBURG*     CLOUDY    67  65  96 SE8       29.78F
MACOMB*        CLOUDY    68  66  91 S17G25    29.80F
JACKSONVILLE*  CLOUDY    71  65  84 S15G28    29.83F
PITTSFIELD*    CLOUDY    70  64  83 S15G24    29.82F
$$

ILZ028>032-037-038-041>044-048-051>054-059>061-250800-
CENTRAL ILLINOIS

CITY           SKY/WX    TMP DP  RH WIND       PRES   REMARKS
PONTIAC        CLOUDY    70  63  79 S18G26    29.89S
BLOOMINGTON    CLOUDY    67  64  90 S15       29.89F
DECATUR        CLOUDY    69  65  86 S14       29.90F
PEORIA         CLOUDY    70  65  84 S13G22    29.83F
LACON*         LGT RAIN  69  65  89 S7        29.82F
LINCOLN*       CLOUDY    68  64  85 S10       29.85F
SPRINGFIELD    CLOUDY    68  67  96 S18G26    29.86F
TAYLORVILLE    CLOUDY    66  64  94 S12G17    29.90R
$$

ILZ033-039-045-046-055>057-062-063-250800-
EAST-CENTRAL ILLINOIS

CITY           SKY/WX    TMP DP  RH WIND       PRES   REMARKS
CHAMPAIGN      LGT RAIN  69  64  84 S14       29.92F
DANVILLE*      CLOUDY    73  64  71 S16       29.91F
RANTOUL*       CLOUDY    70  64  80 S12       29.92F
MATTOON        CLOUDY    67  65  93 S9        29.93F
PARIS*         CLOUDY    74  64  71 S16G22    29.94F
$$

ILZ079-100>102-250800-
SOUTHWEST ILLINOIS

CITY           SKY/WX    TMP DP  RH WIND       PRES   REMARKS
ALTON          CLOUDY    69  69 100 S16       29.89S
BELLEVILLE     CLOUDY    68  68 100 S12       29.90R
CAHOKIA*       CLOUDY    70  65  84 S12G21    29.88F
SPARTA*        CLOUDY    67  65  93 S14G25    29.93F
$$

ILZ064>066-069>071-074>076-080>082-084>086-088>090-092>094-250800-
SOUTH-CENTRAL ILLINOIS

CITY           SKY/WX    TMP DP  RH WIND       PRES   REMARKS
CARBONDALE     CLOUDY    69  66  90 S13       29.96S
CAIRO*         RAIN      70  68  92 S13       29.99F
EFFINGHAM*     CLOUDY    67  64  88 SE6       29.96F
MARION         CLOUDY    72  68  88 S14       29.97F
MT. VERNON     CLOUDY    70  63  78 S12       29.96F
CENTRALIA*     CLOUDY    67  65  93 S15G23    29.94S
SALEM*         CLOUDY    70  66  88 S12       29.94F
METROPOLIS*    RAIN      70  70 100 S9        30.01R
$$

ILZ067-068-072-073-078-083-087-091-250800-
SOUTHEAST ILLINOIS

CITY           SKY/WX    TMP DP  RH WIND       PRES   REMARKS
LAWRENCEVILLE  CLOUDY    74  64  71 S26G33    29.99F
FLORA*         CLOUDY    72  66  81 S15       29.97S
FAIRFIELD*     CLOUDY    73  65  76 S15G22    29.97R
HARRISBURG*    CLOUDY    73  66  80 S16       30.00S
ROBINSON*      CLOUDY    74  63  68 S20G29    29.98F
CARMI*         CLOUDY    72  63  73 S13G21    29.99F
$$

ABBREVIATIONS USED IN REMARKS
   TC - TEMPERATURE IN CELSIUS
  WCI - WIND CHILL INDEX
   HX - HEAT INDEX
  VSB - VISIBILITY
$$



USA.gov is the U.S. government's official web portal to all federal, state and local government web resources and services.